GW2861 Weather Reports


time (UTC)temp
C
wind
direction
speed
KPH
gust
KPH
rain 1hr
cm
rain 24hr
cm
rain mn
cm
humidity
%
barometer
mb
20260504175017 21 214 3.2 14.5 0.00 0.00 0.00 34
20260504174037 21 194 1.6 6.4 0.00 0.00 0.00 35
20260504173016 20 183 3.2 17.7 0.00 0.00 0.00 34
20260504172036 20 203 1.6 8.0 0.00 0.00 0.00 34
20260504171037 20 203 3.2 11.3 0.00 0.00 0.00 34
20260504151017 20 226 3.2 11.3 0.00 0.00 0.00 34
20260504141017 17 222 1.6 11.3 0.00 0.00 0.00 40
20260504081036 8 193 0.0 3.2 0.00 0.00 0.00 55
20260504050016 10 194 1.6 3.2 0.00 0.00 0.00 47
20260504045016 10 196 1.6 8.0 0.00 0.00 0.00 47
20260504044017 10 194 0.0 3.2 0.00 0.00 0.00 48
20260504043016 10 197 0.0 1.6 0.00 0.00 0.00 49
20260504042016 10 198 0.0 4.8 0.00 0.00 0.00 50
20260504041015 10 195 0.0 1.6 0.00 0.00 0.00 48
20260504040018 9 191 0.0 3.2 0.00 0.00 0.00 50
20260504035016 8 192 0.0 1.6 0.00 0.00 0.00 54
20260504034016 8 0.0 0.0 0.00 0.00 0.00 57
20260504033015 8 193 0.0 0.0 0.00 0.00 0.00 55
20260504032016 8 188 0.0 1.6 0.00 0.00 0.00 56
20260504031016 8 0.0 0.0 0.00 0.00 0.00 58
20260504030016 7 192 0.0 0.0 0.00 0.00 0.00 59
20260504025017 7 0.0 0.0 0.00 0.00 0.00 60
20260504024017 7 0.0 0.0 0.00 0.00 0.00 60
20260504023016 8 0.0 0.0 0.00 0.00 0.00 59
20260504022015 8 0.0 0.0 0.00 0.00 0.00 59
20260504021017 8 196 0.0 0.0 0.00 0.00 0.00 57
20260504020036 8 0.0 0.0 0.00 0.00 0.00 57
20260504015015 8 196 0.0 1.6 0.00 0.00 0.00 56
20260504014015 8 196 0.0 1.6 0.00 0.00 0.00 55
20260504013037 9 0.0 0.0 0.00 0.00 0.00 53
20260504012016 9 0.0 0.0 0.00 0.00 0.00 53
20260504011035 10 0.0 0.0 0.00 0.00 0.00 52
20260504010035 10 0.0 0.0 0.00 0.00 0.00 49
20260504005016 11 0.0 0.0 0.00 0.00 0.00 47
20260504004037 11 197 0.0 0.0 0.00 0.00 0.00 45
20260504003035 11 196 0.0 0.0 0.00 0.00 0.00 42
20260504002017 12 0.0 0.0 0.00 0.00 0.00 40
20260504001036 13 0.0 0.0 0.00 0.00 0.00 37
20260504000036 13 193 0.0 1.6 0.00 0.00 0.00 36
20260503235035 13 197 0.0 1.6 0.00 0.00 0.00 35
20260503234057 14 207 1.6 6.4 0.00 0.00 0.00 33
20260503233036 14 194 0.0 3.2 0.00 0.00 0.00 31
20260503232056 15 204 1.6 4.8 0.00 0.00 0.00 31
20260503231055 15 214 1.6 3.2 0.00 0.00 0.00 30
20260503230036 15 207 0.0 3.2 0.00 0.00 0.00 29
20260503225036 15 197 1.6 6.4 0.00 0.00 0.00 29
20260503224035 15 204 1.6 4.8 0.00 0.00 0.00 28
20260503223057 15 213 1.6 4.8 0.00 0.00 0.00 27
20260503222036 15 261 3.2 9.7 0.00 0.00 0.00 27
20260503221036 15 233 3.2 9.7 0.00 0.00 0.00 27
20260503220036 16 223 1.6 8.0 0.00 0.00 0.00 27
20260503215037 16 206 1.6 6.4 0.00 0.00 0.00 27
20260503214036 16 189 1.6 8.0 0.00 0.00 0.00 27
20260503213036 15 208 3.2 9.7 0.00 0.00 0.00 27
20260503212035 15 278 3.2 11.3 0.00 0.00 0.00 27
20260503211057 15 204 4.8 16.1 0.00 0.00 0.00 27
20260503210036 16 296 4.8 16.1 0.00 0.00 0.00 27
20260503205036 16 250 3.2 11.3 0.00 0.00 0.00 27
20260503204035 16 201 3.2 8.0 0.00 0.00 0.00 27
20260503203036 15 234 4.8 12.9 0.00 0.00 0.00 28
20260503202036 15 347 4.8 14.5 0.00 0.00 0.00 28
20260503201035 15 301 4.8 14.5 0.00 0.00 0.00 29
20260503200057 15 210 4.8 16.1 0.00 0.00 0.00 29
20260503195036 15 300 6.4 25.7 0.00 0.00 0.00 29
20260503194036 15 207 3.2 12.9 0.00 0.00 0.00 30
20260503193035 15 180 4.8 27.4 0.00 0.00 0.00 30
20260503192037 14 224 4.8 20.9 0.00 0.00 0.00 30
20260503191036 14 210 3.2 8.0 0.00 0.00 0.00 30
20260503190036 14 251 6.4 29.0 0.00 0.00 0.00 30
20260503185035 13 277 4.8 12.9 0.00 0.00 0.00 32
20260503184056 13 194 3.2 14.5 0.00 0.00 0.00 32
20260503183036 13 257 4.8 12.9 0.00 0.00 0.00 33
20260503182035 13 218 3.2 12.9 0.00 0.00 0.00 32
20260503181055 13 147 3.2 19.3 0.00 0.00 0.00 35
20260503180036 12 192 3.2 12.9 0.00 0.00 0.00 35